QPF
0.00 0.00 0.00 0.00 0.00 0.00 0.01 0.01 0.00 0.00 0.00 0.01 0.00 0.00 0.00 0.00 0.00 0.00 0.00 0.00 0.00 0.00 0.00 0.00 0.00 0.00 0.00 0.00 0.00 0.00 0.00 0.00
0.00 0.00 0.00 0.00 0.00 0.00 0.01 0.01 0.00 0.00 0.00 0.00 0.00 0.00 0.00 0.00 0.00 0.00 0.00 0.00 0.00 0.00 0.00 0.00 0.00 0.00 0.00 0.00 0.00 0.00 0.00 0.00
0.00 0.00 0.00 0.00 0.00 0.00 0.00 0.00 0.00 0.00 0.01 0.01 0.00 0.00 0.00 0.00 0.00 0.00 0.00 0.00 0.00 0.00 0.00 0.00 0.00 0.00 0.00 0.00 0.00 0.00 0.00 0.00
0.00 0.00 0.00 0.00 0.00 0.00 0.00 0.00 0.00 0.00 0.00 0.01 0.00 0.00 0.01 0.00 0.00 0.00 0.00 0.00 0.00 0.00 0.00 0.00 0.00 0.00 0.00 0.00 0.00 0.00 0.00 0.00
0.00 0.00 0.00 0.00 0.00 0.00 0.00 0.00 0.00 0.00 0.00 0.00 0.00 0.00 0.00 0.00 0.00 0.00 0.00 0.00 0.00 0.00 0.00 0.00 0.00 0.00 0.00 0.00 0.00 0.00 0.00 0.01
0.00 0.00 0.00 0.00 0.00 0.00 0.00 0.00 0.00 0.00 0.00 0.00 0.01 0.01 0.00 0.00 0.00 0.00 0.00 0.00 0.00 0.00 0.00 0.00 0.00 0.00 0.00 0.00 0.00 0.00 0.00 0.04
0.00 0.00 0.00 0.00 0.00 0.00 0.00 0.00 0.00 0.00 0.00 0.00 0.01 0.01 0.00 0.00 0.00 0.00 0.00 0.00 0.00 0.00 0.00 0.00 0.00 0.00 0.00 0.00 0.05 0.04 0.02 0.07
0.00 0.00 0.00 0.00 0.00 0.00 0.00 0.00 0.00 0.00 0.00 0.00 0.00 0.01 0.00 0.00 0.00 0.00 0.00 0.00 0.00 0.00 0.00 0.00 0.00 0.00 0.00 0.04 0.09 0.05 0.07 0.08
0.00 0.00 0.00 0.00 0.00 0.00 0.00 0.00 0.00 0.00 0.00 0.00 0.00 0.00 0.00 0.00 0.00 0.00 0.00 0.00 0.00 0.00 0.00 0.00 0.00 0.00 0.00 0.04 0.07 0.05 0.08 0.05
0.00 0.00 0.00 0.00 0.00 0.00 0.00 0.00 0.00 0.00 0.00 0.00 0.00 0.00 0.00 0.00 0.00 0.00 0.00 0.00 0.00 0.00 0.00 0.00 0.00 0.00 0.00 0.02 0.05 0.03 0.03 0.04
0.00 0.00 0.00 0.00 0.00 0.00 0.00 0.00 0.00 0.00 0.00 0.00 0.00 0.00 0.00 0.00 0.00 0.00 0.00 0.00 0.00 0.00 0.00 0.00 0.00 0.00 0.01 0.01 0.02 0.02 0.03 0.04
0.00 0.00 0.00 0.00 0.00 0.00 0.00 0.00 0.00 0.00 0.00 0.00 0.00 0.00 0.00 0.00 0.00 0.00 0.00 0.00 0.00 0.00 0.00 0.00 0.00 0.00 0.01 0.01 0.01 0.01 0.01 0.02
0.00 0.00 0.00 0.00 0.00 0.00 0.00 0.00 0.00 0.00 0.00 0.00 0.00 0.00 0.00 0.00 0.00 0.00 0.00 0.00 0.00 0.00 0.00 0.00 0.00 0.00 0.00 0.00 0.00 0.00 0.00 0.01
0.00 0.00 0.00 0.00 0.00 0.00 0.00 0.00 0.00 0.00 0.00 0.00 0.00 0.00 0.00 0.00 0.00 0.00 0.00 0.00 0.00 0.00 0.00 0.00 0.00 0.00 0.00 0.00 0.00 0.00 0.00 0.00
0.00 0.00 0.00 0.00 0.00 0.00 0.00 0.00 0.00 0.00 0.00 0.00 0.00 0.00 0.00 0.00 0.00 0.00 0.00 0.00 0.00 0.00 0.00 0.00 0.00 0.00 0.00 0.00 0.00 0.00 0.00 0.00
0.00 0.00 0.00 0.00 0.00 0.00 0.00 0.00 0.00 0.00 0.00 0.00 0.00 0.01 0.00 0.00 0.00 0.00 0.00 0.00 0.00 0.00 0.00 0.00 0.00 0.00 0.00 0.00 0.00 0.00 0.00 0.00
0.00 0.00 0.00 0.00 0.00 0.00 0.00 0.00 0.00 0.00 0.00 0.00 0.00 0.00 0.00 0.00 0.01 0.01 0.00 0.00 0.00 0.00 0.00 0.00 0.00 0.00 0.00 0.00 0.00 0.00 0.00 0.00
0.00 0.00 0.00 0.00 0.00 0.00 0.00 0.00 0.00 0.00 0.00 0.00 0.00 0.00 0.00 0.00 0.00 0.00 0.00 0.01 0.00 0.00 0.00 0.00 0.00 0.00 0.00 0.00 0.00 0.00 0.00 0.00
0.00 0.00 0.00 0.00 0.00 0.00 0.00 0.00 0.00 0.00 0.00 0.00 0.00 0.00 0.00 0.00 0.00 0.00 0.00 0.01 0.00 0.00 0.01 0.00 0.00 0.00 0.00 0.01 0.01 0.00 0.00 0.00
MSLP
1002.65 1003.75 1004.91 1005.70 1006.40 1007.28 1008.42 1009.74 1010.62 1011.27 1011.71 1012.11 1012.55 1012.90 1013.40 1013.84 1014.12 1014.88 1015.58 1016.66 1017.37 1018.07 1018.47 1018.76 1018.50 1019.03 1019.49 1019.69 1020.08 1020.27 1020.59 1020.44
1002.05 1003.50 1004.64 1005.52 1006.54 1007.49 1008.50 1009.79 1010.70 1011.26 1011.69 1012.02 1012.66 1013.02 1013.90 1014.38 1014.81 1015.46 1016.16 1016.72 1017.32 1017.76 1017.89 1018.05 1018.09 1018.93 1019.20 1019.88 1020.29 1020.46 1020.39 1020.62
1001.51 1003.18 1004.24 1005.39 1006.48 1007.44 1008.26 1009.37 1010.42 1011.06 1011.41 1011.80 1012.43 1012.98 1014.16 1014.66 1014.97 1015.49 1016.08 1016.28 1016.53 1016.55 1017.12 1017.90 1017.99 1018.81 1019.32 1019.93 1020.15 1020.15 1020.28 1020.73
1000.77 1002.64 1003.80 1005.04 1006.05 1007.13 1008.02 1009.19 1010.10 1010.60 1011.07 1011.66 1012.53 1013.39 1014.18 1014.87 1015.21 1015.50 1015.84 1016.00 1016.15 1016.37 1017.10 1017.44 1017.72 1018.32 1019.09 1019.51 1019.46 1019.51 1019.84 1020.60
999.81 1001.90 1003.25 1004.16 1005.35 1006.68 1007.80 1008.79 1009.71 1010.24 1010.78 1011.28 1012.07 1012.69 1013.49 1014.19 1014.66 1015.19 1015.38 1015.76 1016.31 1016.74 1016.80 1017.28 1017.90 1018.20 1018.78 1019.18 1019.10 1019.31 1019.66 1020.17
999.04 1000.80 1002.42 1003.55 1004.72 1006.03 1007.25 1008.18 1009.23 1009.84 1010.35 1010.91 1011.60 1012.36 1013.21 1013.99 1014.70 1015.14 1015.34 1015.72 1016.07 1016.52 1016.96 1017.39 1017.63 1017.95 1018.15 1018.44 1018.17 1019.27 1019.52 1019.76
998.41 999.98 1001.72 1002.76 1004.03 1005.59 1006.65 1007.43 1008.33 1009.36 1009.90 1010.33 1010.72 1011.65 1012.62 1013.47 1014.20 1014.81 1015.24 1015.60 1015.97 1016.09 1016.40 1016.91 1017.34 1017.63 1017.83 1017.70 1018.12 1018.96 1019.02 1019.13
997.78 999.27 1000.68 1001.93 1003.29 1004.93 1006.01 1006.70 1007.38 1008.42 1009.35 1009.81 1010.03 1010.63 1011.65 1012.39 1013.05 1013.75 1014.36 1014.90 1015.29 1015.61 1016.17 1016.66 1017.09 1017.20 1017.27 1017.25 1018.01 1018.42 1018.49 1018.77
997.06 998.37 999.97 1001.22 1002.44 1003.89 1005.07 1005.88 1006.70 1007.56 1008.44 1009.17 1009.63 1009.97 1010.66 1011.42 1012.24 1012.83 1013.39 1013.85 1014.34 1014.96 1015.64 1016.02 1016.48 1017.00 1016.60 1016.86 1017.43 1017.68 1018.01 1018.36
996.44 997.60 999.19 1000.51 1001.66 1002.82 1004.05 1004.83 1005.54 1006.61 1007.38 1008.34 1008.97 1009.27 1009.71 1010.24 1011.02 1011.88 1012.48 1013.05 1013.58 1014.25 1014.92 1015.29 1015.63 1015.81 1016.20 1016.35 1016.70 1017.10 1017.26 1017.71
995.84 996.98 998.37 999.71 1000.85 1002.14 1003.37 1004.23 1004.54 1005.41 1006.51 1007.22 1007.75 1008.41 1008.96 1009.40 1010.12 1010.56 1011.12 1011.82 1012.42 1012.99 1013.72 1014.32 1014.58 1014.95 1015.28 1015.59 1015.68 1015.95 1016.29 1016.67
995.54 996.43 997.52 998.98 1000.10 1001.14 1002.36 1003.43 1003.68 1004.15 1005.07 1006.09 1006.58 1007.21 1007.94 1008.60 1008.97 1009.51 1010.02 1010.66 1011.25 1011.90 1012.46 1013.20 1013.49 1013.81 1014.28 1014.57 1014.81 1015.07 1015.28 1015.68
995.67 996.18 997.02 998.24 999.36 1000.33 1001.24 1002.32 1002.88 1003.19 1003.92 1004.72 1005.47 1006.01 1006.70 1007.46 1007.85 1008.30 1009.09 1009.65 1010.36 1010.90 1011.28 1011.90 1012.21 1012.60 1013.03 1013.35 1013.66 1013.97 1014.16 1014.36
995.50 996.13 996.75 997.57 998.59 999.44 1000.20 1001.15 1001.93 1002.49 1003.02 1003.75 1004.49 1005.01 1005.51 1005.92 1006.76 1007.52 1008.17 1008.77 1009.34 1009.91 1010.33 1010.53 1010.83 1011.28 1011.78 1012.07 1012.36 1012.67 1012.94 1013.14
995.00 995.62 996.21 996.89 997.66 998.47 999.30 1000.12 1001.07 1001.76 1002.21 1002.70 1003.30 1003.97 1004.48 1005.14 1005.80 1006.43 1007.18 1007.89 1008.45 1008.91 1009.27 1009.67 1010.05 1010.48 1010.85 1011.18 1011.49 1011.79 1011.98 1012.20
995.13 995.13 995.46 996.08 996.85 997.52 998.22 999.04 1000.08 1000.87 1001.40 1001.77 1002.05 1002.87 1003.68 1004.41 1004.92 1005.50 1006.04 1006.58 1007.02 1007.50 1008.06 1008.54 1008.97 1009.37 1009.69 1010.01 1010.28 1010.58 1010.83 1011.33
995.62 995.53 995.22 995.24 995.84 996.62 997.24 997.98 998.73 999.88 1000.32 1000.56 1001.44 1002.06 1002.78 1003.26 1003.82 1004.43 1005.09 1005.49 1005.87 1006.36 1006.61 1006.95 1007.50 1007.97 1008.35 1008.93 1009.48 1009.62 1010.13 1010.77
996.33 996.14 995.56 995.11 995.05 995.69 996.38 996.90 997.84 998.53 999.30 1000.01 1000.49 1001.04 1001.56 1002.10 1002.82 1003.41 1003.70 1004.23 1004.95 1005.26 1005.60 1006.03 1006.25 1006.79 1007.43 1008.11 1008.70 1009.38 1009.86 1010.36
997.32 996.91 996.53 995.78 995.72 995.55 995.30 996.00 996.69 997.45 998.11 998.71 999.25 999.85 1000.27 1000.91 1001.56 1001.97 1002.58 1003.21 1003.69 1004.15 1004.65 1005.01 1005.46 1005.71 1006.27 1007.09 1007.95 1008.97 1009.47 1009.77
Thickness
5694 5687 5680 5672 5665 5656 5645 5632 5622 5615 5610 5607 5602 5601 5598 5595 5598 5593 5589 5585 5583 5578 5577 5578 5582 5580 5580 5582 5580 5585 5586 5588
5696 5686 5679 5671 5661 5651 5641 5628 5619 5612 5607 5605 5599 5596 5593 5590 5590 5586 5581 5578 5575 5572 5574 5576 5578 5574 5576 5577 5577 5579 5581 5581
5694 5684 5678 5668 5659 5650 5642 5631 5619 5611 5609 5607 5600 5596 5588 5586 5586 5583 5578 5578 5576 5578 5577 5575 5577 5574 5574 5574 5573 5574 5576 5576
5695 5683 5677 5669 5660 5651 5644 5632 5622 5615 5612 5608 5600 5593 5588 5584 5583 5582 5580 5579 5579 5579 5577 5577 5579 5577 5574 5574 5576 5576 5574 5574
5702 5685 5678 5674 5666 5656 5645 5636 5626 5620 5615 5610 5604 5598 5592 5587 5585 5582 5582 5579 5577 5577 5579 5578 5576 5576 5574 5573 5576 5575 5575 5572
5703 5691 5683 5678 5671 5660 5649 5641 5630 5624 5619 5613 5606 5600 5592 5586 5582 5580 5581 5579 5579 5578 5577 5576 5575 5575 5575 5575 5581 5574 5574 5574
5706 5697 5687 5682 5674 5661 5653 5646 5638 5628 5622 5618 5613 5604 5595 5588 5581 5577 5577 5578 5578 5578 5576 5574 5573 5573 5573 5576 5575 5570 5573 5574
5706 5696 5688 5683 5675 5663 5655 5650 5644 5635 5625 5621 5619 5612 5602 5594 5588 5583 5581 5580 5580 5578 5575 5573 5571 5571 5572 5573 5570 5571 5574 5573
5708 5701 5690 5683 5678 5669 5660 5654 5648 5641 5633 5626 5622 5618 5612 5605 5597 5593 5590 5588 5584 5580 5576 5575 5574 5570 5574 5572 5571 5573 5573 5572
5709 5704 5694 5685 5679 5673 5666 5661 5656 5648 5641 5633 5627 5624 5620 5615 5609 5603 5597 5593 5589 5583 5578 5576 5575 5574 5574 5576 5574 5573 5575 5573
5709 5704 5695 5689 5682 5675 5667 5662 5662 5655 5647 5640 5635 5631 5626 5622 5616 5612 5608 5603 5598 5594 5586 5581 5580 5579 5578 5578 5578 5578 5577 5575
5706 5703 5699 5690 5684 5678 5670 5663 5663 5662 5655 5647 5643 5638 5633 5628 5624 5619 5616 5611 5605 5599 5595 5589 5588 5586 5584 5582 5581 5581 5581 5578
5699 5699 5695 5689 5683 5678 5673 5667 5664 5664 5660 5654 5648 5645 5640 5633 5629 5626 5620 5615 5609 5605 5603 5598 5596 5594 5590 5588 5586 5584 5582 5582
5694 5693 5690 5687 5683 5679 5676 5671 5665 5664 5661 5656 5651 5647 5644 5641 5633 5628 5623 5618 5613 5609 5606 5605 5602 5599 5594 5592 5590 5588 5587 5587
5693 5690 5688 5687 5684 5681 5676 5672 5667 5663 5661 5658 5654 5649 5645 5641 5635 5631 5625 5620 5615 5612 5609 5606 5603 5599 5596 5593 5590 5589 5589 5586
5685 5687 5688 5685 5682 5681 5679 5675 5668 5663 5659 5658 5658 5652 5645 5640 5636 5631 5628 5624 5620 5616 5611 5608 5604 5600 5598 5595 5593 5589 5587 5582
5673 5677 5684 5686 5684 5680 5677 5674 5671 5663 5660 5661 5654 5651 5646 5642 5638 5632 5626 5623 5621 5616 5614 5612 5607 5605 5601 5594 5590 5590 5584 5579
5659 5664 5672 5679 5683 5681 5675 5675 5669 5665 5660 5656 5653 5651 5648 5644 5639 5633 5631 5625 5618 5614 5611 5608 5608 5605 5598 5592 5585 5582 5578 5574
5645 5651 5657 5667 5671 5674 5679 5674 5670 5665 5659 5657 5655 5652 5649 5645 5641 5637 5632 5626 5620 5615 5610 5607 5604 5604 5597 5591 5581 5575 5572 5570